Regional Weather Roundup
Issued by NWS Charleston, SC

Current Version | Previous Version | Graphics & Text | Print | Product List | Glossary On
Versions: 1 2 3 4 5 6 7 8 9 10 11 12 13 14 15 16 17 18 19 20 21 22 23 24 25 26 27 28 29 30 31 32 33 34 35 36 37 38 39 40 41 42 43 44 45 46 47 48 49 50
000 ASUS42 KCHS 271025 RWRCHS REGIONAL WEATHER ROUNDUP NATIONAL WEATHER SERVICE CHARLESTON SC 600 AM EDT WED AUG 27 2014 NOTE: "FAIR" INDICATES FEW OR NO CLOUDS BELOW 12,000 FEET WITH NO SIGNIFICANT WEATHER AND/OR OBSTRUCTIONS TO VISIBILITY. NOT ALL STATIONS ARE QUALITY CONTROLLED BY THE NATIONAL WEATHER SERVICE. USE DATA WITH CAUTION...ESPECIALLY DEWPOINT OBSERVATIONS. SCZ027-030-031-034>040-042>050-271100- ...SOUTH CAROLINA... CITY SKY/WX TMP DP RH WIND PRES REMARKS N CHARLESTON CLEAR 66 62 87 N5 30.00R WATERFRONT PRK N/A 72 N/A N/A N9 N/A FORT JOHNSON NOT AVBL MOUNT PLEASANT FAIR 66 64 94 N3 30.00R JOHNS ISLAND SUNNY 68 64 88 CALM 30.01R PINOPOLIS N/A 73 64 73 NE13 29.91F MONCKS CORNER N/A 70 66 88 CALM 30.01R SUMMERVILLE FAIR 63 63 100 CALM 30.02R BEAUFORT MCAS CLEAR 68 64 87 NE7 30.00R BEAUFORT ARPT FAIR 68 64 88 N6 30.00R HILTON HEAD IS NOT AVBL GEORGETOWN NOT AVBL WALTERBORO SUNNY 64 N/A N/A N3 30.02R ORANGEBURG CLEAR 64 60 87 N3 30.03R BARNWELL FAIR 64 61 88 N5 30.04R AIKEN FAIR 64 63 94 CALM 30.08S MANNING FAIR 63 N/A N/A CALM 30.02R KINGSTREE NOT AVBL COLUMBIA CLEAR 65 59 81 CALM 30.04S SUMTER CLEAR 63 60 90 NE6 30.01S FLORENCE CLEAR 64 61 90 N7 30.02R MYRTLE BEACH CLEAR 66 61 82 N9 29.99R N MYRTLE BEACH NOT AVBL $$ GAZ063-065-086>088-099>101-113>116-118-119-134-136>141-150-271100- ...GEORGIA... CITY SKY/WX TMP DP RH WIND PRES REMARKS SAVANNAH ARPT CLEAR 68 63 84 N7 30.01R HUNTER AAF CLEAR 70 65 85 N6 29.98R FORT STEWART CLEAR 66 63 89 NW2 29.99S STATESBORO NOT AVBL SYLVANIA SUNNY 65 64 97 CALM 30.04R CLAXTON NOT AVBL THOMSON CLEAR 61 61 100 CALM 30.11S AUGUSTA-BUSH CLEAR 62 59 90 N5 30.04R AUGUSTA-DANIEL CLEAR 70 60 70 N6 30.06R SWAINSBORO FAIR 70 66 88 NE6 30.05R VIDALIA N/A 68 64 88 NE3 30.04R ALMA CLEAR 65 64 97 CALM 30.02R FOG WAYCROSS CLEAR 70 70 99 CALM 30.01R JESUP N/A 72 68 88 CALM 30.01R BRUNSWICK CLEAR 70 68 94 CALM 30.00R SAINT SIMONS CLEAR 72 69 90 N7 29.98R $$ SCZ027-028-034-036>038-045-046-048>050-GAZ119-141-271100- ...LAKE AND SUPPLEMENTAL COASTAL OBSERVATIONS... STATION/POSITION TIME TEMP WIND PRES WAVE SWELL AIR SEA DIR/SP/G HT/PER HT/PER/DIR (UTC) (F) (DEG/KT/KT) (MB) (FT/S) (FT/S/D) UPR LAKE MARION NOT AVBL WINYAH BAY 1000 67 340/ 5 1015.0S LAKE MURRAY 0900 66 350/ 3/ 5 1016.9S ACE BASIN NERRS 1000 67 360/ 2 1015.0S FORT PULASKI 1000 73 350/ 6/ 8 1015.7R SAPELO ISLAND 1000 73 350/ 6 1015.0S $$ ANZ835-935-AMZ111-154-330-350-352-354-374-450-454-472-271100- ...C-MAN AND BUOY OBSERVATIONS... STATION/POSITION TIME TEMP WIND PRES WAVE SWELL AIR SEA DIR/SP/G HT/PER HT/PER/DIR (UTC) (F) (DEG/KT/KT) (MB) (FT/S) (FT/S/D) FOLLY BEACH CMAN 1000 71 360/ 10/ 12 1016.1R BUOY 41004 1000 79 83 10/ 17/ 19 1013.4R 7/10 5/10 BUOY 41008 1000 80 84 30/ 14/ 16 1014.5R 5/ 8 3/100/ 8 5E ST. MARYS GA 1000 83 N/A 6/10 2/110/11 FRYING PAN BUOY NOT AVBL BUOY 41025 1000 77 10/ 19/ 23 1012.7F 7/11 5/120/11 CAPE LOOKOUT NC 1000 74 20/ 13/ 17 1014.0R BUOY 41002 0859 80 81 360/ 25/ 31 1006.5F 12/ 9 5/100/13 BUOY 41010 1000 82 84 20/ 12/ 14 1012.3R 9/10 8/ 40/10 BUOY 41012 NOT AVBL ST AUGUSTINE FL 1000 81 30/ 15/ 16 1014.8R CAPERS NEARSHORE 0900 73 20/ 12/ 16 N/A FRIPP NEARSHORE NOT AVBL $$

USA.gov is the U.S. government's official web portal to all federal, state and local government web resources and services.